sat.trackr.live / text

‹ back to catalog

STARLINK-35971

NORAD 66895 · 2025-283T

PAYLOAD ACTIVE UNKNOWN

§ Identity

Operator
Country
US
Launch date
2025-12-04
Launch site
AFWTR
Launch vehicle
Mass (kg)
RCS (m²)

Purposes: comms

External: N2YO · Heavens-Above · Gunter

§ Orbital elements

Epoch: 2026-09-20T07:21:10.821600Z

Period
93.85 min
Inclination
53.1571°
Eccentricity
0.0001223
Mean motion
15.34409642 rev/d
Perigee alt
461.8 km
Apogee alt
463.5 km
Semi-major
6,840.8 km
B*
4.1691e-4
RAAN
196.4510°
Arg perigee
83.0650°
Mean anomaly
277.0492°
Rev number
4,569

§ Raw data

STARLINK-359711 66895U 25283T   26263.30637525  .00013740  00000+0  41691-3 0  99922 66895  53.1571 196.4510 0001223  83.0650 277.0492 15.34409642 45697

JSON: /api/v1/satellites/66895 · /tle

For live sub-satellite position, see the globe view (requires WebGL).

§ Visibility from observer

Set your observer location to see the next 7 days of passes ≥ 10°. The values pass through the URL so the page stays shareable.

No JS? Fill the form by hand. The geolocation button needs JavaScript.